FlightSource - Aviation Photo Database

World Wide Airport Lookup


Search by ICAO
Or
Search by City

FlightSource.ca - Aviation Photo Database - Los Alamos Airport Information
Airport Identification
Name: Los Alamos Airport
ICAO: KLAM
IATA:
Airport Location
City: Los Alamos
Region: NM
Country: United States
Continent: North America
Latitude: 35.8798
Longitude: -106.269
Airport Information
Type: Small Airport
Elevation: 7171 Feet ASL
Flight Status: KLAM
More Info: KLAM
Airport Weather    
Metar: KLAM 200135Z AUTO 19022G32KT 10SM SCT044 BKN075 OVC085 08/M03 A2953 RMK AO2 T00751027
TAF:


Advertisement